This demonstration page uses our WeatherBlox Daily Observations layout. Learn more.

Left ArrowRight Arrow

Hourly Observations for September 19, 2022

Temp ( °F °C ) Dew Point ( °F °C ) Humidity (%) Winds ( mph kmh ) Pressure ( in mb ) Visibility ( mi km ) Precip ( " mm )
12:53 am 00:53 Clear 67 19.4 64 17.8 90 90 E 6 9 29.93 1013 10 16 0.00 0.00
1:53 am 01:53 Clear 63 17.2 62 16.7 97 97 NE 3 6 29.93 1013 8 13 0.00 0.00
2:53 am 02:53 Clear 66 18.9 64 17.8 93 93 E 6 9 29.91 1013 10 16 0.00 0.00
3:53 am 03:53 Clear 65 18.3 64 17.8 97 97 ENE 6 9 29.91 1013 7 11 0.00 0.00
4:53 am 04:53 Clear 66 18.9 64 17.8 93 93 E 6 9 29.90 1013 7 11 0.00 0.00
5:53 am 05:53 Clear 67 19.4 65 18.3 93 93 E 9 15 29.90 1013 7 11 0.00 0.00
6:53 am 06:53 Mostly Clear with Mist and Fog 67 19.4 65 18.3 93 93 ESE 12 19 29.90 1012 6 10 0.00 0.00
7:25 am 07:25 Mostly Cloudy with Mist and Fog 66 18.9 65 18.3 96 96 SE 12 19 29.89 1012 3 5 0.00 0.00
7:31 am 07:31 Mostly Cloudy with Mist and Fog 66 18.9 65 18.3 96 96 ESE 13 20 29.89 1012 2 3 0.00 0.00
7:43 am 07:43 Cloudy with Fog 66 18.9 65 18.3 96 96 ESE 9 15 29.89 1012 1 1 0.00 0.00
7:53 am 07:53 Partly Cloudy with Fog 66 18.9 65 18.3 96 96 ESE 10 17 29.91 1013 0 0 0.00 0.00
8:51 am 08:51 Cloudy with Fog 66 19 66 19 100 100 SE 10 17 29.89 1012 1 1 0.00 0.00
8:53 am 08:53 Cloudy with Fog 66 18.9 66 18.9 100 100 SE 8 13 29.91 1013 1 1 0.00 0.00
9:08 am 09:08 Cloudy with Mist and Fog 67 19.4 67 19.4 100 100 SE 7 11 29.88 1012 2 3 0.00 0.00
9:17 am 09:17 Cloudy with Mist and Fog 67 19.4 67 19.4 100 100 ESE 8 13 29.88 1012 5 8 0.00 0.00
9:34 am 09:34 Partly Cloudy 68 20 67 19.4 96 96 SE 9 15 29.88 1012 9 14 0.00 0.00
9:53 am 09:53 Partly Cloudy 70 21.1 67 19.4 90 90 SE 9 15 29.90 1013 9 14 0.00 0.00
10:53 am 10:53 Sunny 75 23.9 67 19.4 76 76 SSE 9 15 29.89 1012 10 16 0.00 0.00
11:53 am 11:53 Sunny 81 27.2 68 20 65 65 SE 6 9 29.88 1012 10 16 0.00 0.00
12:53 pm 12:53 Sunny 88 31.1 64 17.8 45 45 VRB 7 11 29.85 1011 10 16 0.00 0.00
1:53 pm 13:53 Sunny 91 32.8 63 17.2 39 39 S 13 20 29.83 1010 10 16 0.00 0.00
2:53 pm 14:53 Sunny 93 33.9 63 17.2 37 37 S 12 19 29.80 1009 10 16 0.00 0.00
3:53 pm 15:53 Sunny 94 34.4 59 15 31 31 S 12 19 29.78 1009 10 16 0.00 0.00
4:53 pm 16:53 Sunny 95 35 57 13.9 28 28 S 13 20 29.77 1008 10 16 0.00 0.00
5:53 pm 17:53 Sunny 94 34.4 57 13.9 29 29 SSW 9 15 29.76 1008 10 16 0.00 0.00
6:53 pm 18:53 Sunny 91 32.8 56 13.3 31 31 S 3 6 29.76 1008 10 16 0.00 0.00
7:53 pm 19:53 Clear 87 30.6 57 13.9 36 36 S 6 9 29.78 1008 10 16 0.00 0.00
8:53 pm 20:53 Clear 84 28.9 58 14.4 41 41 SSE 5 7 29.79 1009 10 16 0.00 0.00
9:53 pm 21:53 Clear 83 28.3 57 13.9 41 41 SSE 6 9 29.80 1009 10 16 0.00 0.00
10:53 pm 22:53 Clear 79 26.1 58 14.4 49 49 S 8 13 29.80 1009 10 16 0.00 0.00
11:53 pm 23:53 Clear 77 25 59 15 54 54 S 8 13 29.81 1009 10 16 0.00 0.00

Powered by AerisWeather